History for Miami, FL

Friday, November 9, 2012 — View Current Conditions

Jump to Data:

Date:
Airport Code:
Recently Viewed Airport Codes: KMIA
Daily Summary
  Actual Average Record
Temperature
Mean Temperature 68°F 76°F  
Max Temperature 77°F 83°F 89°F (1989)
Min Temperature 59°F 69°F 51°F (1923)
Degree Days
Heating Degree Days 0 0  
Month to date heating degree days 1 0  
Since 1 July heating degree days 1 0  
Cooling Degree Days 3 11  
Month to date cooling degree days 52 104  
Year to date cooling degree days 4291 4176  
Growing Degree Days 18 (Base 50)    
Moisture
Dew Point 51°F    
Average Humidity 57    
Maximum Humidity 75    
Minimum Humidity 38    
Precipitation
Precipitation 0.00 in 0.12 in 3.57 in (1962)
Month to date precipitation 0.00 1.20  
Year to date precipitation 85.93 57.79  
Snow
Snow 0.00 in in in ()
Month to date snowfall 0.0  
Since 1 July snowfall 0.0  
Since 1 September snowfall 0.0  
Snow Depth 0.00 in    
Sea Level Pressure
Sea Level Pressure 30.16 in    
Wind
Wind Speed 10 mph (NNE)    
Max Wind Speed 20 mph    
Max Gust Speed 28 mph    
Visibility 10 miles    
Events      
T = Trace of Precipitation, MM = Missing Value Source: NWS Daily Summary

Show full METARS

(help) - Comma Delimited File

Hourly Observations

Time(EST) Temperature Dew Point Humidity Sea Level Pressure Visibility Wind Direction Wind Speed Gust Speed Precipitation Events Conditions
12:53 AM 61.0°F 51.1°F 70% 30.12 in 10.0 miles NNW 9.2 mph - N/A   Mostly Cloudy
1:53 AM 60.1°F 51.1°F 72% 30.11 in 10.0 miles NNW 6.9 mph - N/A   Mostly Cloudy
2:53 AM 61.0°F 51.1°F 70% 30.12 in 10.0 miles NNW 6.9 mph - N/A   Mostly Cloudy
3:53 AM 60.1°F 50.0°F 69% 30.12 in 10.0 miles NNW 6.9 mph - N/A   Mostly Cloudy
4:53 AM 60.1°F 50.0°F 69% 30.12 in 10.0 miles NNW 6.9 mph - N/A   Scattered Clouds
5:53 AM 59.0°F 51.1°F 75% 30.14 in 10.0 miles NNW 5.8 mph - N/A   Partly Cloudy
6:53 AM 60.1°F 51.1°F 72% 30.15 in 10.0 miles North 4.6 mph - N/A   Partly Cloudy
7:53 AM 63.0°F 53.1°F 70% 30.17 in 10.0 miles Variable 6.9 mph - N/A   Partly Cloudy
8:53 AM 66.9°F 54.0°F 63% 30.19 in 10.0 miles Variable 6.9 mph - N/A   Partly Cloudy
9:53 AM 72.0°F 54.0°F 53% 30.20 in 10.0 miles North 10.4 mph - N/A   Partly Cloudy
10:53 AM 75.0°F 50.0°F 41% 30.20 in 10.0 miles NE 10.4 mph 19.6 mph N/A   Scattered Clouds
11:53 AM 75.0°F 48.0°F 38% 30.19 in 10.0 miles NNE 9.2 mph 21.9 mph N/A   Scattered Clouds
12:53 PM 75.9°F 50.0°F 40% 30.17 in 10.0 miles ENE 11.5 mph 20.7 mph N/A   Mostly Cloudy
1:53 PM 73.9°F 48.9°F 41% 30.16 in 10.0 miles NE 18.4 mph 24.2 mph N/A   Mostly Cloudy
2:53 PM 75.0°F 50.0°F 41% 30.15 in 10.0 miles NE 12.7 mph 23.0 mph N/A   Scattered Clouds
3:53 PM 73.9°F 46.9°F 38% 30.14 in 10.0 miles NE 12.7 mph 20.7 mph N/A   Scattered Clouds
4:53 PM 73.0°F 51.1°F 46% 30.15 in 10.0 miles NE 15.0 mph 24.2 mph N/A   Scattered Clouds
5:53 PM 72.0°F 48.0°F 43% 30.16 in 10.0 miles NNE 5.8 mph 16.1 mph N/A   Mostly Cloudy
6:53 PM 71.1°F 51.1°F 49% 30.17 in 10.0 miles ENE 15.0 mph 23.0 mph N/A   Mostly Cloudy
7:53 PM 71.1°F 50.0°F 47% 30.18 in 10.0 miles NE 10.4 mph - N/A   Mostly Cloudy
8:53 PM 72.0°F 51.1°F 48% 30.20 in 10.0 miles ENE 15.0 mph - N/A   Mostly Cloudy
9:53 PM 71.1°F 51.1°F 49% 30.20 in 10.0 miles ENE 6.9 mph - N/A   Overcast
10:53 PM 72.0°F 51.1°F 48% 30.20 in 10.0 miles ESE 11.5 mph - N/A   Mostly Cloudy
11:53 PM 71.1°F 50.0°F 47% 30.19 in 10.0 miles ENE 9.2 mph - N/A   Mostly Cloudy